LEMUR F

Last updated on Sat Sep 08 2018 00:06:51 GMT+0000 (Coordinated Universal Time)

1 43559U 18046F 18250.45364924 .00003606 00000-0 14299-3 0 9991 2 43559 51.6436 339.0907 0008458 135.5209 224.6451 15.27952369 7868
UTC large
Height (km)
Speed (km/s)
/
Latitude / Longitude
Inclination (degrees)
Orbital Period (minutes)
Azimuth
Elevation
Range (km)
Doppler Factor

Next 0 passes for location: London (51.5072 / 0.1276)

Sorry there are no passes over London.